Location: G�migny
(47.9646°N, 1.6950°E)
Time: 02:25:51
(UTC+00:00)

STARLINK-38 - Pass Details

Date: 23 October 2019
Orbit: 548 x 551 km, 53.0° (Epoch: 16 November)

Event Time Altitude Azimuth Distance (km) Brightness Sun altitude
Rises 18:25:54 0° 291° (WNW) 2,720 8.5 -16.6°
Reaches altitude 10° 18:28:13 10° 297° (WNW) 1,825 7.3 -17.0°
Maximum altitude 18:32:14 47° 13° (NNE) 734 4.1 -17.6°
Enters shadow 18:33:26 36° 59° (ENE) 889 4.2 -17.8°
